Location: Arrakis Observatory
(44.1122°N, 95.7153°W)
Time: 10:56:02
(UTC-05:00)

Amateur Radio Satellites - All Passes

Search period start: 29 July 2015 10:26
Search period end: 30 July 2015 10:26
Location: Arrakis Observatory, 44.1122°N, 95.7153°W

Satellite Date Start Highest point End Downlink Frequencies (MHz)
Time Altitude Azimuth
AUBIESAT-1 29 Jul 10:29:59 10:33:36 33° 260° (W) 10:37:29 437.475
TIGRISAT 29 Jul 10:30:36 10:34:32 36° 70° (ENE) 10:38:36 435.000
ANTELSAT 29 Jul 10:30:52 10:34:51 38° 70° (ENE) 10:38:59 437.575/2403.000
Oscar 11 29 Jul 10:32:26 10:36:30 37° 97° (E) 10:40:34 145.826/435.025
COMPASS 1 29 Jul 10:33:44 10:38:00 80° 284° (WNW) 10:42:12 437.405
POPSAT HIP 1 29 Jul 10:39:18 10:42:11 19° 65° (ENE) 10:45:11 437.405
CUTE 1.7 + AOD 2 29 Jul 10:40:56 10:45:03 43° 288° (WNW) 10:49:06 437.475
SEEDS 29 Jul 10:43:23 10:47:32 49° 287° (WNW) 10:51:39 437.485
QB50P2 29 Jul 10:45:41 10:48:55 22° 67° (ENE) 10:52:16 145.880/145.840
BEESAT 2 29 Jul 10:48:39 10:52:14 29° 244° (WSW) 10:55:43 435.950
CANX-2 29 Jul 10:48:59 10:52:53 33° 290° (WNW) 10:56:41 2200.000
DX 1 29 Jul 10:58:04 10:59:48 12° 88° (E) 11:01:46 434.975-435.025
CINEMA 3 29 Jul 10:58:50 11:03:19 54° 287° (WNW) 11:07:59 145.822/145.860
BUGSAT 1 29 Jul 11:00:53 11:03:44 19° 66° (ENE) 11:06:42 437.445
HUMSAT D 29 Jul 11:04:52 11:08:15 22° 93° (E) 11:11:42 437.325/437.525
PCSat 29 Jul 11:07:19 11:12:45 75° 304° (WNW) 11:18:12 145.827
YUBILEINY 29 Jul 11:13:09 11:20:22 28° 63° (ENE) 11:27:49 435.215
DUCHIFAT 1 29 Jul 11:13:16 11:17:10 40° 71° (ENE) 11:21:06 145.980
QB50P1 29 Jul 11:13:56 11:17:53 42° 71° (ENE) 11:21:53 145.935-145.965
HO-68 29 Jul 11:15:51 11:22:35 44° 296° (WNW) 11:29:14 435.675
NANOSAT C BR1 29 Jul 11:16:29 11:20:27 44° 72° (ENE) 11:24:29 145.865
AAUSAT CUBESAT 2 29 Jul 11:18:30 11:22:15 31° 291° (WNW) 11:25:56 437.432
UNISAT 6 29 Jul 11:22:06 11:26:23 62° 259° (W) 11:30:48 437.425
ZACube-1 29 Jul 11:26:19 11:30:51 89° 118° (ESE) 11:35:26 437.345
DELFI C3 29 Jul 11:27:06 11:31:11 78° 285° (WNW) 11:35:13 145.870
50 SAT 29 Jul 11:42:18 11:45:37 25° 94° (E) 11:48:58 437.505
SO-50 29 Jul 11:42:50 11:47:33 55° 310° (NW) 11:52:24 436.795
UWE-3 29 Jul 11:42:58 11:47:22 49° 288° (WNW) 11:51:49 435.000/436.395/437.385
Cosmos 2499 29 Jul 11:47:29 11:48:53 10° 312° (NW) 11:49:44 435.465 / 435.565
FUNcube-1 29 Jul 11:49:38 11:54:02 54° 287° (WNW) 11:58:29 145.935
Cosmos 2491 29 Jul 11:50:08 11:55:44 20° 79° (E) 12:01:45 435.465 / 435.565
CUBEBUG 2 29 Jul 11:51:53 11:56:00 33° 291° (WNW) 12:00:09 437.445
AISAT 29 Jul 11:54:38 11:58:32 31° 96° (E) 12:02:28 437.250
POLYITAN 1 29 Jul 11:55:07 11:59:17 67° 259° (W) 12:03:29 437.675
AIST 2 29 Jul 11:59:51 12:03:18 25° 246° (WSW) 12:06:39 435.215
O/OREOS (USA 219) 29 Jul 12:00:59 12:05:15 37° 59° (ENE) 12:09:32 437.305
AIST 1 29 Jul 12:04:29 12:06:34 14° 86° (E) 12:08:53
TIGRISAT 29 Jul 12:08:01 12:11:26 22° 268° (W) 12:14:49 435.000
ANTELSAT 29 Jul 12:08:27 12:11:50 21° 268° (W) 12:15:09 437.575/2403.000
Oscar 11 29 Jul 12:09:04 12:12:29 22° 294° (WNW) 12:15:48 145.826/435.025
UKube-1 29 Jul 12:09:08 12:13:27 66° 102° (ESE) 12:17:44 .
POPSAT HIP 1 29 Jul 12:13:47 12:17:47 42° 262° (W) 12:21:47 437.405
CUBEBUG 1 29 Jul 12:18:58 12:22:49 31° 96° (E) 12:26:42 437.445
QB50P2 29 Jul 12:20:47 12:24:39 34° 263° (W) 12:28:31 145.880/145.840
DX 1 29 Jul 12:32:15 12:36:34 65° 286° (WNW) 12:40:52 434.975-435.025
ESTCUBE 1 29 Jul 12:33:15 12:37:41 54° 100° (E) 12:42:05 437.505/2401.250
VELOX 1 29 Jul 12:34:22 12:38:47 79° 102° (ESE) 12:43:11 145.980
BUGSAT 1 29 Jul 12:35:11 12:39:00 37° 263° (W) 12:42:46 437.445
HUMSAT D 29 Jul 12:40:07 12:44:04 35° 290° (WNW) 12:48:01 437.325/437.525
Oscar 19 29 Jul 12:46:35 12:50:18 21° 63° (ENE) 12:54:10 437.125/150
DUCHIFAT 1 29 Jul 12:50:09 12:53:11 19° 268° (W) 12:56:05 145.980
QB50P1 29 Jul 12:51:04 12:53:59 18° 269° (W) 12:56:48 145.935-145.965
PCSat 29 Jul 12:53:42 12:57:10 16° 325° (NW) 13:00:31 145.827
NANOSAT C BR1 29 Jul 12:53:45 12:56:34 17° 269° (W) 12:59:15 145.865
ZACube-1 29 Jul 13:05:06 13:06:36 11° 299° (WNW) 13:07:53 437.345
SPROUT 29 Jul 13:07:17 13:11:08 32° 96° (E) 13:15:00 437.525
YUBILEINY 29 Jul 13:09:20 13:18:06 70° 266° (W) 13:26:50 435.215
50 SAT 29 Jul 13:16:45 13:20:10 27° 291° (WNW) 13:23:30 437.505
Gurwin Techsat 1B 29 Jul 13:21:33 13:24:20 15° 59° (ENE) 13:27:21 435.225
SO-50 29 Jul 13:26:43 13:29:14 14° 332° (NNW) 13:31:40 436.795
AISAT 29 Jul 13:31:17 13:35:02 27° 293° (WNW) 13:38:43 437.250
TISAT 1 29 Jul 13:31:39 13:35:31 35° 97° (E) 13:39:24 437.305
AO-7 29 Jul 13:33:52 13:35:54 11° 38° (NE) 13:38:21 29.400- 29.500
AIST 1 29 Jul 13:39:31 13:43:48 55° 281° (WNW) 13:48:05
O/OREOS (USA 219) 29 Jul 13:40:46 13:44:31 24° 256° (WSW) 13:48:11 437.305
Cosmos 2491 29 Jul 13:42:46 13:51:34 88° 279° (W) 14:00:23 435.465 / 435.565
UKube-1 29 Jul 13:46:49 13:49:06 14° 298° (WNW) 13:51:13 .
Cosmos 2504 29 Jul 13:50:41 13:57:58 34° 68° (ENE) 14:05:38 435.465 / 435.565
CUBEBUG 1 29 Jul 13:55:29 13:59:05 26° 293° (WNW) 14:02:37 437.445
ITAMSAT 1 29 Jul 13:59:59 14:04:20 28° 65° (ENE) 14:08:46 435.822/435.867
ESTCUBE 1 29 Jul 14:11:11 14:14:11 17° 296° (WNW) 14:17:02 437.505/2401.250
VELOX 1 29 Jul 14:12:56 14:14:47 12° 299° (WNW) 14:16:26 145.980
BEESAT 29 Jul 14:17:30 14:20:55 20° 91° (E) 14:24:28 436.000
Oscar 19 29 Jul 14:24:19 14:29:19 54° 260° (W) 14:34:22 437.125/150
JAS-2 29 Jul 14:29:27 14:34:16 25° 59° (ENE) 14:39:41 435.910
SWISSCUBE 29 Jul 14:36:59 14:41:16 33° 96° (E) 14:45:35 437.505
SPROUT 29 Jul 14:43:33 14:47:06 25° 292° (WNW) 14:50:34 437.525
ITUPSAT 1 29 Jul 14:56:14 15:00:50 46° 98° (E) 15:05:26 437.325
Gurwin Techsat 1B 29 Jul 14:58:21 15:03:41 86° 256° (WSW) 15:09:03 435.225
TISAT 1 29 Jul 15:07:49 15:11:06 22° 293° (WNW) 15:14:19 437.305
YUBILEINY 29 Jul 15:09:16 15:13:28 14° 285° (WNW) 15:17:03 435.215
AO-7 29 Jul 15:18:59 15:26:39 43° 60° (ENE) 15:34:25 29.400- 29.500
ITAMSAT 1 29 Jul 15:38:45 15:43:41 41° 262° (W) 15:48:36 435.822/435.867
STARS 29 Jul 15:40:16 15:42:29 14° 89° (E) 15:44:54 437.465
Cosmos 2504 29 Jul 15:42:30 15:50:39 59° 268° (W) 15:59:00 435.465 / 435.565
CUSAT 1 29 Jul 15:42:34 15:46:03 35° 77° (ENE) 15:50:33 437.405
Cosmos 2491 29 Jul 15:43:35 15:49:57 21° 302° (WNW) 15:55:58 435.465 / 435.565
BEESAT 29 Jul 15:54:27 15:59:04 48° 289° (WNW) 16:03:38 436.000
GONETS M04 29 Jul 15:56:20 15:59:08 12° 49° (NE) 16:02:33
KKS-1 29 Jul 15:58:07 16:02:12 35° 97° (E) 16:06:18 437.445
HORYU 2 29 Jul 16:03:15 16:07:34 54° 72° (ENE) 16:11:58 437.375
JAS-2 29 Jul 16:12:51 16:18:45 63° 260° (W) 16:25:30 435.910
SWISSCUBE 29 Jul 16:14:56 16:19:04 29° 293° (WNW) 16:23:08 437.505
ITUPSAT 1 29 Jul 16:34:45 16:38:28 22° 296° (WNW) 16:42:03 437.325
Gurwin Techsat 1B 29 Jul 16:42:56 16:44:35 11° 275° (W) 16:45:53 435.225
DANDE 29 Jul 16:43:25 16:46:49 79° 260° (W) 16:51:18 436.750
AO-7 29 Jul 17:11:20 17:19:23 49° 260° (W) 17:27:26 29.400- 29.500
STARS 29 Jul 17:15:01 17:19:23 60° 286° (WNW) 17:23:43 437.465
CUSAT 1 29 Jul 17:25:39 17:28:33 19° 264° (W) 17:31:52 437.405
Cubesat XI-IV 29 Jul 17:28:29 17:32:09 20° 61° (ENE) 17:35:58 437.490
KKS-1 29 Jul 17:35:02 17:38:42 25° 293° (WNW) 17:42:17 437.445
Cosmos 2504 29 Jul 17:39:20 17:41:23 11° 286° (WNW) 17:42:45 435.465 / 435.565
HORYU 2 29 Jul 17:41:49 17:44:36 16° 270° (W) 17:47:14 437.375
Cosmos 2499 29 Jul 17:43:06 17:47:11 14° 53° (NE) 17:51:53 435.465 / 435.565
GONETS M04 29 Jul 17:50:00 17:58:33 57° 75° (ENE) 18:07:08
MOZHAYETS 4 29 Jul 18:03:41 18:08:22 90° 284° (WNW) 18:13:00
PCSat 29 Jul 18:11:02 18:15:17 23° 42° (NE) 18:19:38 145.827
CUBESAT XI-V 29 Jul 18:15:28 18:16:14 10° 85° (E) 18:17:18 437.345
CUTE-I 29 Jul 18:23:27 18:28:39 54° 71° (ENE) 18:33:54 437.470
SO-50 29 Jul 18:32:45 18:37:14 33° 44° (NE) 18:41:41 436.795
Cubesat XI-IV 29 Jul 19:06:27 19:11:47 66° 258° (WSW) 19:17:10 437.490
STRAND 1 29 Jul 19:11:49 19:14:10 13° 87° (E) 19:16:46 437.568
BRITE-PL 29 Jul 19:28:10 19:31:46 25° 69° (ENE) 19:35:18 437.365/2234.400
Cosmos 2499 29 Jul 19:33:53 19:42:28 63° 77° (ENE) 19:51:17 435.465 / 435.565
MOZHAYETS 4 29 Jul 19:43:19 19:44:56 11° 300° (WNW) 19:46:19
GONETS M04 29 Jul 19:47:29 19:55:03 34° 275° (W) 20:02:26
CUBESAT XI-V 29 Jul 19:49:46 19:54:25 82° 282° (WNW) 19:59:00 437.345
GOMX 1 29 Jul 19:53:35 19:57:07 26° 69° (ENE) 20:00:39 467.674
PCSat 29 Jul 19:53:51 19:59:15 69° 242° (WSW) 20:04:38 145.827
DOVE 4 29 Jul 19:56:47 19:59:32 18° 65° (ENE) 20:02:23 437.250
HO-68 29 Jul 19:58:31 20:04:49 36° 62° (ENE) 20:11:14 435.675
CUTE 1.7 + AOD 2 29 Jul 20:00:45 20:03:26 17° 65° (ENE) 20:06:15 437.475
SEEDS 29 Jul 20:03:00 20:05:15 15° 64° (ENE) 20:07:40 437.485
CUTE-I 29 Jul 20:05:00 20:09:07 21° 269° (W) 20:13:05 437.470
CANX-2 29 Jul 20:08:03 20:11:17 22° 67° (ENE) 20:14:38 2200.000
SO-50 29 Jul 20:13:14 20:17:53 40° 243° (WSW) 20:22:23 436.795
CINEMA 3 29 Jul 20:26:59 20:29:36 17° 64° (ENE) 20:32:21 145.822/145.860
PRISM 29 Jul 20:32:40 20:36:48 68° 102° (ESE) 20:40:52 437.425
AAUSAT CUBESAT 2 29 Jul 20:35:39 20:38:46 21° 67° (ENE) 20:41:59 437.432
STRAND 1 29 Jul 20:48:56 20:54:04 77° 286° (WNW) 20:59:09 437.568
VERMONT LUNAR 29 Jul 20:54:22 20:57:08 27° 164° (SSE) 20:59:55 437.305
BRITE-PL 29 Jul 21:06:17 21:10:16 30° 264° (W) 21:14:02 437.365/2234.400
UWE-3 29 Jul 21:06:50 21:09:29 17° 64° (ENE) 21:12:19 435.000/436.395/437.385
FUNcube-1 29 Jul 21:12:40 21:14:58 15° 63° (ENE) 21:17:27 145.935
CUBEBUG 2 29 Jul 21:15:37 21:19:02 25° 68° (ENE) 21:22:35 437.445
COMPASS 1 29 Jul 21:25:55 21:30:08 84° 77° (ENE) 21:34:24 437.405
Cosmos 2499 29 Jul 21:27:47 21:35:12 32° 275° (W) 21:42:32 435.465 / 435.565
Oscar 11 29 Jul 21:28:36 21:32:32 35° 70° (ENE) 21:36:32 145.826/435.025
CUBESAT XI-V 29 Jul 21:30:21 21:31:08 10° 301° (WNW) 21:31:41 437.345
GOMX 1 29 Jul 21:31:35 21:35:16 27° 265° (W) 21:38:50 467.674
DOVE 4 29 Jul 21:33:04 21:37:03 42° 262° (W) 21:41:01 437.250
CUTE 1.7 + AOD 2 29 Jul 21:34:50 21:38:59 50° 261° (W) 21:43:11 437.475
SEEDS 29 Jul 21:36:25 21:40:36 59° 260° (W) 21:44:50 437.485
CANX-2 29 Jul 21:43:02 21:47:01 37° 263° (W) 21:51:00 2200.000
HO-68 29 Jul 21:45:29 21:52:23 50° 261° (W) 21:59:18 435.675
RS-15 29 Jul 21:46:12 21:55:41 38° 108° (ESE) 22:05:41 29.354- 29.394
DX 1 29 Jul 21:55:13 21:57:33 15° 62° (ENE) 22:00:03 434.975-435.025
HUMSAT D 29 Jul 21:58:33 22:01:28 19° 66° (ENE) 22:04:32 437.325/437.525
Cosmos 2491 29 Jul 21:59:09 22:00:07 10° 47° (NE) 22:01:45 435.465 / 435.565
PHONESAT 2.4 29 Jul 22:00:54 22:03:30 20° 157° (SSE) 22:06:08 2401.200-2431.200
CINEMA 3 29 Jul 22:02:29 22:06:29 46° 262° (W) 22:10:32 145.822/145.860
AUBIESAT-1 29 Jul 22:09:12 22:12:17 18° 94° (E) 22:15:29 437.475
PRISM 29 Jul 22:09:56 22:11:44 12° 298° (WNW) 22:13:22 437.425
AAUSAT CUBESAT 2 29 Jul 22:10:14 22:14:09 37° 264° (W) 22:18:05 437.432
ISS 29 Jul 22:10:27 22:12:47 19° 135° (SE) 22:15:10 145.825
DELFI C3 29 Jul 22:15:12 22:19:16 76° 75° (ENE) 22:23:21 145.870
ZACube-1 29 Jul 22:23:41 22:27:52 83° 74° (ENE) 22:32:09 437.345
50 SAT 29 Jul 22:28:07 22:30:46 18° 66° (ENE) 22:33:32 437.505
VERMONT LUNAR 29 Jul 22:30:31 22:33:34 43° 180° (S) 22:36:36 437.305
STRAND 1 29 Jul 22:30:44 22:32:30 11° 303° (WNW) 22:34:01 437.568
UWE-3 29 Jul 22:41:39 22:45:41 47° 261° (W) 22:49:49 435.000/436.395/437.385
FUNcube-1 29 Jul 22:46:46 22:50:52 56° 260° (W) 22:55:04 145.935
CUBEBUG 2 29 Jul 22:52:00 22:55:40 29° 265° (W) 22:59:23 437.445
AISAT 29 Jul 22:53:47 22:57:43 34° 69° (ENE) 23:01:44 437.250
UKube-1 29 Jul 23:05:07 23:09:25 67° 73° (ENE) 23:13:43 .
Oscar 11 29 Jul 23:05:21 23:08:49 22° 267° (W) 23:12:14 145.826/435.025
M-CUBED/EXP-1 PRIME 29 Jul 23:10:29 23:15:20 80° 108° (ESE) 23:20:05 437.505
UNISAT 6 29 Jul 23:12:39 23:16:30 25° 93° (E) 23:20:26 437.425
CUBEBUG 1 29 Jul 23:16:31 23:20:23 32° 69° (ENE) 23:24:18 437.445
DX 1 29 Jul 23:29:03 23:33:22 62° 258° (WSW) 23:37:41 434.975-435.025
HUMSAT D 29 Jul 23:33:03 23:36:57 39° 263° (W) 23:40:54 437.325/437.525
VELOX 1 29 Jul 23:33:07 23:37:33 84° 76° (ENE) 23:41:59 145.980
ESTCUBE 1 29 Jul 23:34:05 23:38:33 60° 73° (ENE) 23:43:02 437.505/2401.250
PHONESAT 2.4 29 Jul 23:37:42 23:41:02 42° 173° (S) 23:44:23 2401.200-2431.200
POLYITAN 1 29 Jul 23:39:48 23:42:41 18° 91° (E) 23:45:42 437.675
AUBIESAT-1 29 Jul 23:42:40 23:47:21 59° 292° (WNW) 23:51:58 437.475
AIST 1 29 Jul 23:45:08 23:49:10 39° 76° (ENE) 23:53:11
ISS 29 Jul 23:45:43 23:48:57 63° 332° (NNW) 23:52:12 145.825
BEESAT 3 29 Jul 23:51:13 23:52:48 12° 110° (ESE) 23:54:35 437.485
Cosmos 2491 29 Jul 23:51:26 23:59:51 51° 73° (ENE) 00:08:17 435.465 / 435.565
RS-15 29 Jul 23:56:33 00:07:28 68° 312° (NW) 00:18:51 29.354- 29.394
TIGRISAT 29 Jul 23:56:36 00:01:16 67° 102° (ESE) 00:05:57 435.000
ANTELSAT 29 Jul 23:57:12 00:01:53 71° 102° (ESE) 00:06:36 437.575/2403.000
POPSAT HIP 1 29 Jul 23:57:28 00:01:04 27° 95° (E) 00:04:43 437.405
50 SAT 30 Jul 00:01:29 00:05:06 37° 263° (W) 00:08:46 437.505
SPROUT 30 Jul 00:02:56 00:06:39 30° 69° (ENE) 00:10:25 437.525
QB50P2 30 Jul 00:04:15 00:08:06 32° 96° (E) 00:11:58 145.880/145.840
VERMONT LUNAR 30 Jul 00:07:15 00:09:59 27° 197° (SSW) 00:12:42 437.305
BUGSAT 1 30 Jul 00:15:49 00:19:11 25° 94° (E) 00:22:37 437.445
YUBILEINY 30 Jul 00:17:01 00:24:00 29° 83° (E) 00:31:16 435.215
TISAT 1 30 Jul 00:25:13 00:28:55 32° 70° (ENE) 00:32:41 437.305
AISAT 30 Jul 00:30:45 00:34:23 24° 266° (W) 00:37:57 437.250
DUCHIFAT 1 30 Jul 00:31:39 00:35:51 61° 101° (E) 00:40:03 145.980
QB50P1 30 Jul 00:32:50 00:37:05 66° 101° (ESE) 00:41:18 145.935-145.965
NANOSAT C BR1 30 Jul 00:35:10 00:39:24 69° 102° (ESE) 00:43:38 145.865
BEESAT 2 30 Jul 00:42:57 00:46:37 33° 117° (ESE) 00:50:22 435.950
UKube-1 30 Jul 00:44:19 00:46:04 12° 272° (W) 00:47:36 .
M-CUBED/EXP-1 PRIME 30 Jul 00:46:38 00:49:32 16° 304° (NW) 00:52:16 437.505
UNISAT 6 30 Jul 00:49:04 00:53:22 36° 290° (WNW) 00:57:39 437.425
CUBEBUG 1 30 Jul 00:53:09 00:56:48 25° 266° (W) 01:00:22 437.445
ESTCUBE 1 30 Jul 01:13:15 01:15:52 15° 271° (W) 01:18:19 437.505/2401.250
POLYITAN 1 30 Jul 01:14:46 01:18:49 43° 289° (WNW) 01:22:53 437.675
PHONESAT 2.4 30 Jul 01:15:26 01:18:45 40° 189° (S) 01:22:02 2401.200-2431.200
ISS 30 Jul 01:23:08 01:25:50 23° 351° (N) 01:28:31 145.825
AIST 1 30 Jul 01:23:35 01:26:32 18° 273° (W) 01:29:20
BEESAT 30 Jul 01:25:16 01:29:17 28° 66° (ENE) 01:33:23 436.000
BEESAT 3 30 Jul 01:26:11 01:30:15 70° 306° (NW) 01:34:21 437.485
POPSAT HIP 1 30 Jul 01:33:13 01:36:55 29° 291° (WNW) 01:40:34 437.405
TIGRISAT 30 Jul 01:34:44 01:37:32 16° 297° (WNW) 01:40:10 435.000
ANTELSAT 30 Jul 01:35:29 01:38:10 15° 298° (WNW) 01:40:41 437.575/2403.000
SPROUT 30 Jul 01:39:08 01:42:44 26° 266° (W) 01:46:19 437.525
QB50P2 30 Jul 01:40:23 01:43:52 24° 293° (WNW) 01:47:16 145.880/145.840
SWISSCUBE 30 Jul 01:44:48 01:49:21 45° 70° (ENE) 01:53:57 437.505
Cosmos 2491 30 Jul 01:48:42 01:56:33 38° 274° (W) 02:04:13 435.465 / 435.565
BUGSAT 1 30 Jul 01:51:09 01:54:39 28° 291° (WNW) 01:58:06 437.445
AIST 2 30 Jul 01:58:06 02:02:10 46° 119° (ESE) 02:06:17 435.215
TISAT 1 30 Jul 02:01:23 02:04:46 23° 267° (W) 02:08:03 437.305
ITUPSAT 1 30 Jul 02:04:17 02:09:02 63° 73° (ENE) 02:13:49 437.325
DUCHIFAT 1 30 Jul 02:08:54 02:11:13 14° 297° (WNW) 02:13:23 145.980
QB50P1 30 Jul 02:10:20 02:12:28 13° 297° (WNW) 02:14:27 145.935-145.965
YUBILEINY 30 Jul 02:11:38 02:20:16 64° 283° (WNW) 02:28:59 435.215
NANOSAT C BR1 30 Jul 02:12:45 02:14:45 13° 298° (WNW) 02:16:34 145.865
RS-15 30 Jul 02:13:02 02:22:34 30° 342° (NNW) 02:32:21 29.354- 29.394
O/OREOS (USA 219) 30 Jul 02:15:03 02:18:57 31° 105° (ESE) 02:22:56 437.305
BEESAT 2 30 Jul 02:21:04 02:24:42 29° 315° (NW) 02:28:19 435.950
Cosmos 2504 30 Jul 02:25:35 02:30:17 20° 80° (E) 02:35:28 435.465 / 435.565
Oscar 19 30 Jul 02:34:10 02:39:10 47° 99° (E) 02:44:10 437.125/150
STARS 30 Jul 02:38:49 02:41:24 16° 63° (ENE) 02:44:10 437.465
PHONESAT 2.4 30 Jul 02:53:50 02:56:14 17° 205° (SSW) 02:58:36 2401.200-2431.200
KKS-1 30 Jul 02:57:40 03:01:45 38° 70° (ENE) 03:05:53 437.445
ISS 30 Jul 03:00:13 03:02:59 25° 11° (NNE) 03:05:45 145.825
BEESAT 30 Jul 03:02:37 03:07:02 35° 264° (W) 03:11:25 436.000
BEESAT 3 30 Jul 03:07:12 03:08:59 12° 327° (NNW) 03:10:41 437.485
Gurwin Techsat 1B 30 Jul 03:13:19 03:18:07 34° 95° (E) 03:22:57 435.225
JAS-2 30 Jul 03:20:31 03:26:19 23° 87° (E) 03:32:24 435.910
SWISSCUBE 30 Jul 03:23:45 03:27:27 21° 268° (W) 03:31:03 437.505
MOZHAYETS 4 30 Jul 03:32:52 03:34:46 13° 61° (ENE) 03:36:54
AIST 2 30 Jul 03:37:27 03:40:58 24° 318° (NW) 03:44:26 435.215
ITUPSAT 1 30 Jul 03:44:31 03:47:26 15° 271° (W) 03:50:09 437.325
ITAMSAT 1 30 Jul 03:49:39 03:54:49 63° 101° (ESE) 03:59:57 435.822/435.867
O/OREOS (USA 219) 30 Jul 03:54:26 03:58:23 29° 304° (WNW) 04:02:19 437.305
STARS 30 Jul 04:13:10 04:17:27 56° 260° (W) 04:21:47 437.465
Oscar 19 30 Jul 04:14:06 04:18:17 24° 296° (WNW) 04:22:19 437.125/150
Cosmos 2504 30 Jul 04:14:29 04:21:34 77° 280° (W) 04:29:13 435.465 / 435.565
YUBILEINY 30 Jul 04:14:52 04:19:24 14° 309° (NW) 04:23:24 435.215
RS-15 30 Jul 04:30:04 04:39:37 29° 16° (NNE) 04:49:40 29.354- 29.394
KKS-1 30 Jul 04:35:05 04:38:33 21° 267° (W) 04:41:55 437.445
ISS 30 Jul 04:36:30 04:39:46 81° 29° (NNE) 04:43:02 145.825
Gurwin Techsat 1B 30 Jul 04:53:19 04:58:06 34° 293° (WNW) 05:02:48 435.225
CUSAT 1 30 Jul 04:53:28 04:56:00 25° 97° (E) 04:58:18 437.405
GONETS M04 30 Jul 05:04:04 05:05:51 11° 73° (ENE) 05:08:21
JAS-2 30 Jul 05:04:21 05:12:09 80° 286° (WNW) 05:19:59 435.910
MOZHAYETS 4 30 Jul 05:06:45 05:11:24 82° 258° (WSW) 05:16:05
AO-7 30 Jul 05:10:43 05:18:52 55° 101° (ESE) 05:26:59 29.400- 29.500
CUBESAT XI-V 30 Jul 05:19:41 05:22:04 14° 62° (ENE) 05:24:37 437.345
HORYU 2 30 Jul 05:29:13 05:33:45 89° 94° (E) 05:38:16 437.375
ITAMSAT 1 30 Jul 05:30:14 05:33:53 19° 299° (WNW) 05:37:22 435.822/435.867
DANDE 30 Jul 05:58:10 06:01:33 54° 282° (WNW) 06:04:19 436.750
Cosmos 2504 30 Jul 06:11:23 06:15:31 15° 305° (NW) 06:19:23 435.465 / 435.565
ISS 30 Jul 06:13:59 06:15:51 14° 227° (SW) 06:17:37 145.825
STRAND 1 30 Jul 06:28:28 06:32:31 25° 64° (ENE) 06:36:41 437.568
CUTE-I 30 Jul 06:39:59 06:43:35 19° 90° (E) 06:47:20 437.470
RS-15 30 Jul 06:43:32 06:55:05 62° 46° (NE) 07:07:09 29.354- 29.394
JAS-2 30 Jul 06:50:51 06:56:13 20° 304° (NW) 07:01:21 435.910
GONETS M04 30 Jul 06:52:34 07:01:04 62° 92° (E) 07:09:37
CUBESAT XI-V 30 Jul 06:54:18 06:58:59 73° 258° (WSW) 07:03:40 437.345
AO-7 30 Jul 07:03:55 07:11:28 39° 301° (WNW) 07:18:51 29.400- 29.500
HORYU 2 30 Jul 07:08:16 07:09:46 11° 300° (WNW) 07:11:03 437.375
Cubesat XI-IV 30 Jul 07:22:18 07:27:23 44° 98° (E) 07:32:28 437.490
PRISM 30 Jul 07:23:45 07:27:53 61° 73° (ENE) 07:32:02 437.425
BEESAT 3 30 Jul 08:06:22 08:08:58 16° 37° (NE) 08:11:38 437.485
STRAND 1 30 Jul 08:06:32 08:11:29 46° 261° (W) 08:16:27 437.568
Cosmos 2499 30 Jul 08:12:44 08:19:36 45° 89° (E) 08:27:03 435.465 / 435.565
CUTE-I 30 Jul 08:18:53 08:24:09 60° 288° (WNW) 08:29:22 437.470
M-CUBED/EXP-1 PRIME 30 Jul 08:27:21 08:29:40 15° 56° (NE) 08:32:13 437.505
AIST 2 30 Jul 08:42:28 08:42:49 10° 29° (NNE) 08:43:19 435.215
GONETS M04 30 Jul 08:50:56 08:58:35 32° 295° (WNW) 09:06:01
RS-15 30 Jul 08:56:23 09:07:25 47° 249° (WSW) 09:18:36 29.354- 29.394
PCSat 30 Jul 08:57:40 08:59:19 12° 104° (ESE) 09:01:16 145.827
AUBIESAT-1 30 Jul 08:57:42 09:01:02 25° 60° (ENE) 09:04:38 437.475
BEESAT 2 30 Jul 09:00:21 09:04:07 34° 47° (NE) 09:07:50 435.950
PRISM 30 Jul 09:01:49 09:03:46 13° 271° (W) 09:05:31 437.425
Cubesat XI-IV 30 Jul 09:02:51 09:07:17 27° 296° (WNW) 09:11:38 437.490
BRITE-PL 30 Jul 09:07:58 09:12:16 66° 101° (E) 09:16:50 437.365/2234.400
COMPASS 1 30 Jul 09:09:43 09:11:23 12° 87° (E) 09:13:16 437.405
HO-68 30 Jul 09:11:31 09:17:40 31° 94° (E) 09:23:57 435.675
CUTE 1.7 + AOD 2 30 Jul 09:18:52 09:22:23 25° 93° (E) 09:25:58 437.475
SEEDS 30 Jul 09:19:52 09:23:03 20° 92° (E) 09:26:17 437.485
CANX-2 30 Jul 09:26:38 09:30:32 33° 96° (E) 09:34:27 2200.000
DOVE 4 30 Jul 09:29:26 09:33:44 41° 98° (E) 09:38:17 437.250
GOMX 1 30 Jul 09:30:04 09:34:30 67° 102° (ESE) 09:39:12 467.674
BEESAT 3 30 Jul 09:43:20 09:47:24 72° 238° (WSW) 09:51:22 437.485
AAUSAT CUBESAT 2 30 Jul 09:51:32 09:55:14 30° 95° (E) 09:58:57 437.432
CINEMA 3 30 Jul 09:55:01 09:59:16 35° 96° (E) 10:03:43 145.822/145.860
M-CUBED/EXP-1 PRIME 30 Jul 09:59:57 10:03:54 64° 254° (WSW) 10:08:13 437.505
Cosmos 2499 30 Jul 10:06:06 10:12:57 37° 291° (WNW) 10:20:11 435.465 / 435.565
ZACube-1 30 Jul 10:11:45 10:14:24 16° 89° (E) 10:17:14 437.345
UNISAT 6 30 Jul 10:13:24 10:16:58 26° 67° (ENE) 10:20:40 437.425
